Location: Zagreb
(45.8000°N, 16.0000°E)
Time: 01:21:20
(UTC+02:00)

Transit 2A Rocket - Pass Details

Date: 25 January 2022
Orbit: 592 x 909 km, 66.7° (Epoch: 26 May)

Event Time Altitude Azimuth Distance (km) Brightness Sun altitude
Rises 01:16:13 0° 329° (NNW) 3,503 - -59.8°
Reaches altitude 10° 01:19:51 10° 350° (N) 2,518 - -59.4°
Maximum altitude 01:23:23 16° 28° (NNE) 2,056 - -59.0°
Drops below altitude 10° 01:26:47 10° 66° (ENE) 2,399 - -58.7°
Sets 01:30:06 0° 88° (E) 3,259 - -58.3°
